Theta_e
339 339 342 341 339 336 335 338 340 340 339 338 340 335 335 334 335 339 342 343 343 343 343 343 343 342 340 338 335 331 328 326 326 326 331 336 332 327 330 335 335 330 328
338 343 341 340 338 338 342 342 341 339 338 342 341 339 340 342 339 338 340 344 342 343 343 343 343 341 342 339 338 339 338 331 328 327 326 327 329 330 329 335 332 335 332
340 340 340 340 336 340 340 340 338 338 338 338 337 341 344 343 344 340 339 342 342 343 343 342 342 340 341 342 341 337 338 340 337 330 329 329 330 331 330 330 330 331 332
340 341 339 339 341 341 339 338 341 339 339 340 339 338 339 341 342 343 342 343 342 341 343 342 341 341 341 341 341 341 338 336 341 340 337 335 334 334 333 334 338 338 339
338 341 339 339 341 339 337 337 338 337 340 339 338 338 340 342 343 342 343 342 342 342 344 343 344 341 341 341 342 341 342 341 337 339 340 341 340 339 339 338 339 339 338
340 342 340 339 339 337 336 336 337 338 340 341 341 337 338 343 342 343 343 342 342 343 343 342 343 343 344 343 343 342 341 342 341 338 339 341 340 341 340 339 339 338 339
343 342 341 341 339 338 337 338 338 340 341 342 342 341 343 343 343 342 342 341 341 341 343 343 341 341 341 341 342 342 341 342 341 342 339 340 341 341 341 339 338 340 339
341 341 340 338 338 339 337 337 339 342 342 343 343 341 340 340 340 340 340 340 343 343 342 343 342 341 341 342 342 340 341 342 341 340 341 340 341 339 340 340 339 337 336
340 340 340 339 338 338 338 340 343 342 342 342 340 339 339 339 341 341 340 339 339 339 341 343 342 342 341 341 342 341 342 341 341 341 340 340 340 339 339 338 336 339 339
342 342 342 342 343 343 343 343 343 342 342 341 341 341 341 341 341 341 342 342 342 342 343 342 342 341 341 341 341 341 341 339 340 341 338 339 339 338 338 338 338 336 336
335 335 340 341 341 341 340 342 341 340 341 341 342 341 340 341 341 342 340 340 340 341 342 342 341 337 339 340 340 339 340 340 338 337 338 337 338 339 339 336 335 334 334
338 337 339 340 339 339 339 339 339 338 338 338 339 340 340 340 340 341 341 340 339 339 340 339 341 340 340 339 339 338 337 337 336 335 336 337 338 336 335 334 333 332 331
337 335 340 340 339 339 339 339 340 340 340 340 341 340 340 341 341 341 342 340 338 339 339 339 338 339 338 340 338 336 336 337 338 338 337 336 335 334 333 331 330 328 331
338 335 338 339 340 340 341 340 340 340 339 339 339 339 341 342 341 341 340 341 337 337 337 336 337 338 337 337 337 337 337 336 335 335 334 333 332 331 329 327 326 325 325
336 334 338 339 340 340 340 339 338 338 338 339 339 339 341 341 341 342 341 341 339 337 335 334 335 335 334 335 335 335 335 334 333 333 332 331 329 328 326 324 324 324 324
333 335 337 339 339 340 338 334 333 334 336 338 339 339 339 340 341 341 342 342 341 339 337 336 335 335 335 335 333 334 334 333 331 330 329 328 327 325 324 323 322 322 322
334 334 334 336 338 336 335 331 332 334 335 336 337 339 339 339 341 342 343 342 341 339 339 336 336 334 333 333 332 332 332 330 330 329 328 326 324 323 321 321 320 319 319
334 336 335 336 335 334 331 330 332 333 333 333 334 337 338 338 339 341 342 342 340 340 339 338 335 334 333 333 332 332 330 329 328 327 325 324 323 321 320 318 315 314 313
333 334 334 334 333 333 330 328 328 329 331 332 334 334 334 335 338 340 340 340 340 340 339 339 336 334 333 332 332 331 330 329 327 326 324 322 320 318 316 313 310 307 305
334 335 335 334 332 332 330 327 323 325 329 331 332 333 332 332 336 338 339 339 339 338 339 337 336 334 333 332 331 331 330 328 326 324 323 321 318 314 310 309 309 308 305
334 333 332 333 331 330 330 328 324 323 324 326 328 328 328 328 330 333 334 336 338 339 339 336 334 333 331 332 331 330 329 327 326 323 322 320 314 311 311 311 310 309 308
335 334 332 331 332 330 329 329 326 322 322 323 323 324 326 327 327 328 330 331 333 335 336 333 332 331 330 331 331 330 329 327 324 323 321 319 316 313 312 312 312 310 308
335 332 334 333 332 331 329 330 328 325 324 324 323 323 324 324 323 323 325 329 331 332 332 331 330 330 331 331 331 329 327 325 323 321 320 320 318 316 315 314 313 313 310
336 335 336 334 334 333 332 329 328 326 325 326 325 324 322 322 322 321 321 322 324 327 329 330 330 330 328 327 325 325 325 323 323 320 319 320 319 317 316 315 314 314 313
338 336 336 336 335 334 334 328 328 327 326 326 326 325 323 321 321 321 320 320 320 323 325 326 325 325 324 323 321 322 322 322 323 321 319 319 319 318 316 315 315 315 314
334 336 334 334 334 334 333 328 327 327 327 327 325 325 323 322 321 320 318 316 317 318 317 317 317 314 311 312 316 320 320 319 320 320 319 318 320 317 317 317 317 317 316
Wind_Speed
18 17 15 14 9 10 10 8 7 6 8 10 14 15 16 17 18 17 16 11 8 7 7 8 8 7 10 9 9 9 9 10 11 11 10 11 10 10 10 10 10 9 10
18 17 17 16 13 12 11 9 8 7 6 8 11 14 15 15 16 17 17 14 11 9 10 10 11 8 7 10 11 11 10 10 12 12 12 13 13 11 11 11 11 12 11
21 16 15 16 17 14 13 12 10 9 9 9 12 17 16 17 18 17 17 16 15 15 13 11 11 10 7 8 11 13 12 12 12 12 12 12 13 12 12 12 12 12 13
20 18 16 14 16 16 15 14 13 12 14 17 16 17 18 20 20 18 17 17 17 15 15 12 12 11 10 9 9 11 14 14 13 14 13 14 15 16 15 13 14 15 15
19 17 16 15 16 16 16 15 15 16 15 14 17 17 17 18 19 20 20 20 18 18 16 15 17 16 14 14 13 12 12 15 15 15 15 16 15 14 14 15 13 11 11
17 15 15 16 17 18 18 17 17 18 18 15 16 19 17 16 18 22 22 22 21 20 18 18 18 19 18 17 18 14 13 12 14 17 16 16 16 15 14 13 12 13 13
18 16 16 17 20 21 19 18 18 21 16 13 11 13 13 14 17 19 19 19 18 19 21 19 19 20 21 20 17 16 16 15 14 14 15 16 17 14 15 14 14 15 13
12 13 15 18 22 24 20 19 19 15 15 13 11 11 8 12 16 17 19 19 17 17 17 19 18 18 18 17 17 16 16 14 11 9 11 15 14 12 14 13 12 13 14
10 10 11 11 11 17 19 19 18 15 14 12 13 11 6 7 9 7 8 10 13 15 17 16 16 15 16 16 17 15 14 12 15 14 11 15 20 14 10 8 9 8 9
6 7 8 8 8 9 12 11 12 13 13 16 15 15 14 10 7 6 3 2 3 5 9 12 14 14 12 13 12 12 12 11 9 10 7 5 3 4 6 8 7 4 5
6 7 10 10 10 10 12 14 15 15 17 16 17 16 16 17 18 13 8 6 4 3 4 6 7 6 6 8 8 7 6 7 6 3 2 2 4 3 2 2 2 1 2
7 7 8 8 9 10 13 13 14 15 15 15 16 15 16 17 18 19 15 9 6 3 3 2 2 5 7 5 5 4 6 4 3 4 6 4 5 4 2 1 1 2 3
7 6 6 5 6 5 6 7 9 10 11 11 12 12 14 16 15 14 17 16 11 12 8 8 4 5 4 5 4 4 2 2 4 4 4 3 2 1 2 2 3 3 5
7 6 6 5 5 4 5 6 8 9 10 10 11 12 11 13 14 11 15 17 16 12 11 10 8 7 4 5 7 7 7 6 6 5 5 4 4 3 4 4 4 4 3
7 6 6 5 5 5 4 5 7 7 7 6 8 9 8 10 13 13 11 14 18 16 10 13 9 7 6 6 6 6 7 6 5 4 4 5 6 5 4 3 3 3 3
7 6 4 4 4 4 5 6 7 6 7 6 5 6 8 8 13 14 13 12 17 11 15 15 11 10 6 5 6 7 7 6 7 7 7 7 6 5 5 5 5 4 3
3 2 2 5 5 5 5 6 5 6 6 6 6 4 5 7 9 13 13 13 19 15 10 18 14 12 7 6 7 6 7 8 8 8 7 6 6 6 6 6 5 4 3
3 4 3 3 4 4 4 4 5 5 3 3 5 4 3 5 7 9 12 16 19 14 11 14 18 16 11 10 8 7 8 10 9 6 6 5 5 5 5 4 4 4 2
3 3 5 5 4 4 2 2 3 3 2 1 2 3 3 4 5 7 9 13 15 13 12 13 19 18 15 13 11 11 10 10 8 6 4 5 5 5 4 4 5 5 5
4 5 7 7 6 5 3 2 1 2 2 2 2 2 2 2 4 5 8 11 14 14 13 13 17 18 16 14 11 9 10 9 9 7 4 5 6 6 7 8 9 9 8
4 6 8 9 7 5 4 3 2 2 3 3 3 3 3 4 4 5 6 8 11 13 13 14 16 19 18 16 14 12 10 11 9 6 7 8 8 9 9 9 10 10 11
7 9 8 9 8 6 6 5 3 2 3 4 3 3 4 4 4 4 4 6 6 5 11 15 14 17 17 14 14 12 12 13 11 10 10 11 10 8 8 7 8 8 9
15 16 12 11 10 8 8 7 6 5 4 3 3 3 4 4 4 3 4 5 6 7 7 8 12 13 13 12 12 13 12 11 9 9 11 12 12 10 6 6 5 4 5
22 23 20 15 15 10 8 9 8 7 7 5 5 5 4 4 5 5 5 5 5 7 8 9 10 10 10 10 10 9 10 12 10 9 12 11 11 11 8 7 6 4 3
19 25 22 19 19 14 10 11 10 9 8 8 8 6 5 5 5 5 5 5 6 8 9 10 10 11 10 10 10 11 13 13 12 12 13 10 11 12 9 9 9 9 7
9 14 12 21 19 18 15 13 13 11 10 10 9 9 8 7 7 6 5 5 6 6 7 9 10 10 10 10 10 11 11 11 13 13 14 14 13 12 12 13 13 13 13
Wind_Direction
221 214 212 204 208 213 206 206 216 236 224 215 212 214 215 220 225 226 227 232 248 234 242 250 250 255 248 246 246 247 250 251 247 246 241 253 252 250 245 251 256 261 264
237 225 217 217 216 204 206 210 207 216 222 225 213 217 216 221 229 230 226 233 246 241 246 259 247 252 262 251 250 251 252 254 259 257 251 248 251 253 255 252 259 259 270
231 227 233 234 217 210 215 215 216 229 242 239 237 236 230 239 233 230 232 240 243 251 250 255 247 258 272 272 264 256 255 256 251 253 256 258 258 257 257 260 263 265 266
232 227 230 215 205 216 225 233 237 246 256 262 255 241 242 238 235 232 240 243 241 249 246 250 250 259 260 270 280 271 257 257 256 255 251 250 246 246 248 256 266 269 270
221 220 224 222 220 230 235 235 240 254 260 263 247 241 242 245 240 243 245 247 247 247 246 253 256 257 257 262 266 271 272 257 253 256 256 252 253 250 252 257 264 270 276
214 224 228 231 233 234 237 242 253 259 261 259 254 231 243 247 245 245 247 247 248 253 255 254 253 258 258 266 264 268 272 271 260 252 255 252 250 249 249 250 259 270 278
210 233 243 242 238 239 242 244 251 257 252 249 226 225 239 241 240 238 242 245 249 254 250 250 256 259 260 266 265 268 271 271 268 261 254 254 252 252 258 257 267 269 278
233 237 247 254 246 239 240 242 250 247 251 233 226 230 227 235 238 243 246 247 250 246 246 246 251 262 260 257 263 261 258 267 260 260 267 253 253 255 257 264 272 283 279
231 242 244 243 228 225 237 242 238 235 237 233 226 228 215 223 215 233 239 244 248 247 244 243 247 255 258 254 258 261 259 259 259 258 268 259 261 256 258 279 282 272 264
214 221 228 229 222 230 234 242 241 241 238 239 237 233 236 239 204 201 204 207 193 232 234 235 244 254 256 239 237 247 252 258 252 262 255 283 258 189 241 259 260 262 252
239 250 256 251 247 245 249 246 250 256 249 247 244 246 244 241 237 229 226 221 252 249 234 215 215 202 235 232 238 240 243 223 211 214 232 118 148 169 182 205 232 234 268
235 266 272 259 248 250 250 249 249 249 245 245 248 247 247 244 241 231 224 209 198 154 214 232 205 244 207 178 160 181 148 159 218 207 200 209 204 199 237 323 34 67 84
256 260 242 265 256 233 231 242 243 242 242 246 250 254 252 243 243 239 228 204 180 143 130 130 133 148 165 153 155 150 180 189 156 159 160 170 175 117 84 80 76 92 115
260 262 238 228 232 233 227 226 244 249 249 251 253 252 254 234 231 231 222 208 176 173 155 138 135 153 185 144 122 119 121 124 130 136 130 120 100 82 80 83 83 85 88
260 259 234 232 229 233 236 250 246 251 256 253 247 244 246 235 226 223 214 218 193 168 166 165 146 142 145 139 135 138 130 125 125 120 107 99 99 101 95 83 82 90 94
260 240 228 231 226 232 252 261 250 246 247 253 247 238 236 237 223 218 216 215 216 203 178 186 179 169 167 170 139 128 121 125 118 109 108 109 103 96 93 91 88 84 93
226 221 244 237 251 258 275 276 247 238 241 245 241 229 230 232 217 213 213 210 210 207 220 184 187 178 176 183 155 145 137 128 119 116 112 110 109 107 99 94 89 80 85
242 272 269 236 244 265 287 249 243 246 249 245 232 231 234 223 213 205 205 209 213 219 221 198 185 183 186 179 172 164 155 139 128 112 103 95 94 97 96 87 76 77 75
237 253 270 280 258 269 303 303 277 259 226 214 213 205 221 217 211 203 199 202 211 216 218 218 194 193 192 192 178 175 169 160 146 128 114 112 107 101 96 93 82 69 59
260 271 280 280 275 273 277 298 257 222 191 166 169 148 142 165 182 190 195 201 215 218 220 211 200 197 200 192 190 194 178 166 157 156 133 131 122 111 102 93 84 79 73
263 285 274 273 265 269 278 274 252 193 155 148 174 150 122 116 153 176 185 213 218 217 209 198 197 198 202 202 198 197 185 176 177 196 177 158 137 126 118 105 95 84 74
247 268 268 259 259 266 260 263 248 215 173 152 176 165 155 133 121 141 154 155 154 183 197 188 201 202 209 208 200 195 194 197 187 198 186 176 165 155 145 127 106 87 71
240 249 242 248 246 255 261 247 251 235 213 193 186 171 156 153 141 131 152 167 165 165 169 198 204 204 209 210 208 211 204 200 200 198 193 190 191 188 185 176 139 100 79
255 266 240 234 232 235 257 242 244 237 230 219 202 189 178 176 174 166 173 173 172 177 175 177 183 200 202 204 202 209 207 199 199 196 195 202 202 203 201 197 194 175 168
278 273 244 233 234 224 240 241 242 242 235 233 223 219 211 193 200 188 187 191 187 182 184 186 190 192 198 197 196 196 204 212 218 213 201 198 202 207 215 222 229 239 229
309 260 262 259 258 223 223 231 241 240 241 242 237 235 224 212 206 209 202 213 215 204 205 204 200 199 200 202 205 209 212 221 219 215 214 214 213 216 231 236 243 244 240